Guest (not logged in) | Log in

Project information

Duration: 2018-12-20 00:00 onwards
Historical data from: 1995-01-01
Position: 0° 0' 0.00" N
0° 0' 0.00" E
0 m A.S.L
Contact: Carsten Weber Kock
Description: Zephir 317 måler vind i Roskilde

Measurements

NameHeight [m]DurationLatest (2019-02-14 23:50)
Dir_100m 0.00 2018-12-20 14:20 onwards 268.63 Deg
Dir_10m 0.00 2018-12-20 14:20 onwards 265.44 Deg
Dir_125m 0.00 2018-12-20 14:20 onwards 272.03 Deg
Dir_150m 0.00 2018-12-20 14:20 onwards 266.37 Deg
Dir_200m 0.00 2018-12-20 14:20 onwards 270.91 Deg
Dir_20m 0.00 2018-12-20 14:20 onwards 252.94 Deg
Dir_30m 0.00 2018-12-20 14:20 onwards 262.53 Deg
Dir_38m 0.00 2018-12-20 14:20 onwards 259.67 Deg
Dir_50m 0.00 2018-12-20 14:20 onwards 265.23 Deg
Dir_60m 0.00 2018-12-20 14:20 onwards 269.08 Deg
Dir_800m 0.00 2018-12-20 14:20 onwards 277.42 Deg
Dir_80m 0.00 2018-12-20 14:20 onwards 265.44 Deg
Humidity 0.00 2018-12-20 14:20 onwards -
MetDir 0.00 2018-12-20 14:20 onwards 220.27 Deg
Metwsp 0.00 2018-12-20 14:20 onwards 2.72 m/s
Pressure 0.00 2018-12-20 14:20 onwards 1024.10 mbar
Temp 0.00 2018-12-20 14:20 onwards 4.50 DegC
TI_100m 0.00 2018-12-20 14:20 onwards 0.16 -
TI_10m 0.00 2018-12-20 14:20 onwards 0.26 -
TI_125m 0.00 2018-12-20 14:20 onwards 0.11 -
TI_150m 0.00 2018-12-20 14:20 onwards 0.16 -
TI_200m 0.00 2018-12-20 14:20 onwards 0.17 -
TI_20m 0.00 2018-12-20 14:20 onwards 0.25 -
TI_30m 0.00 2018-12-20 14:20 onwards 0.24 -
TI_38m 0.00 2018-12-20 14:20 onwards 0.29 -
TI_50m 0.00 2018-12-20 14:20 onwards 0.24 -
TI_60m 0.00 2018-12-20 14:20 onwards 0.26 -
TI_800m 0.00 2018-12-20 14:20 onwards 0.05 -
TI_80m 0.00 2018-12-20 14:20 onwards 0.22 -
Vert_100m 0.00 2018-12-20 14:20 onwards 0.07 m/s
Vert_10m 0.00 2018-12-20 14:20 onwards 0.15 m/s
Vert_125m 0.00 2018-12-20 14:20 onwards -0.05 m/s
Vert_150m 0.00 2018-12-20 14:20 onwards 0.23 m/s
Vert_200m 0.00 2018-12-20 14:20 onwards 0.39 m/s
Vert_20m 0.00 2018-12-20 14:20 onwards 0.16 m/s
Vert_30m 0.00 2018-12-20 14:20 onwards 0.19 m/s
Vert_38m 0.00 2018-12-20 14:20 onwards 0.14 m/s
Vert_50m 0.00 2018-12-20 14:20 onwards 0.12 m/s
Vert_60m 0.00 2018-12-20 14:20 onwards 0.09 m/s
Vert_800m 0.00 2018-12-20 14:20 onwards 0.06 m/s
Vert_80m 0.00 2018-12-20 14:20 onwards 0.12 m/s
Wsp_100m 0.00 2018-12-20 14:20 onwards 4.48 m/s
Wsp_10m 0.00 2018-12-20 14:20 onwards 2.76 m/s
Wsp_125m 0.00 2018-12-20 14:20 onwards 5.47 m/s
Wsp_150m 0.00 2018-12-20 14:20 onwards 6.30 m/s
Wsp_200m 0.00 2018-12-20 14:20 onwards 7.13 m/s
Wsp_20m 0.00 2018-12-20 14:20 onwards 2.93 m/s
Wsp_30m 0.00 2018-12-20 14:20 onwards 2.88 m/s
Wsp_38m 0.00 2018-12-20 14:20 onwards 3.14 m/s
Wsp_50m 0.00 2018-12-20 14:20 onwards 3.10 m/s
Wsp_60m 0.00 2018-12-20 14:20 onwards 3.26 m/s
Wsp_800m 0.00 2018-12-20 14:20 onwards 7.17 m/s
Wsp_80m 0.00 2018-12-20 14:20 onwards 3.78 m/s
Comments and help requests to webmaster
© 2019